• In Belarus
  • List of Countries
  • For 7 days
  • Water Temperature
  • Satellite Maps
  • Weather Map
  • Weather Widgets
  • user-avatar
    Login

    Hourly Weather Tarin Kowt

    Today, 20 April, Friday

    Time Temperature Precipitation Wind Pressure Humidity
    00:00 +8°C° 0 mm 2 mps 613 mmHg 36%
    01:00 +8°C° 0 mm 1 mps 612 mmHg 39%
    02:00 +8°C° 0 mm 1 mps 612 mmHg 40%
    03:00 +8°C° 0 mm 1 mps 612 mmHg 41%
    04:00 +7°C° 0 mm 1 mps 612 mmHg 42%
    05:00 +7°C° 0 mm 1 mps 612 mmHg 39%
    06:00 +8°C° 0 mm 1 mps 613 mmHg 36%
    07:00 +8°C° 0 mm 1 mps 613 mmHg 34%
    08:00 +10°C° 0 mm 1 mps 614 mmHg 31%
    09:00 +10°C° 0 mm 2 mps 614 mmHg 28%
    10:00 +13°C° 0 mm 2 mps 615 mmHg 25%
    11:00 +13°C° 0 mm 3 mps 615 mmHg 22%
    12:00 +14°C° 0 mm 3 mps 615 mmHg 20%
    13:00 +15°C° 0 mm 4 mps 615 mmHg 18%
    14:00 +15°C° 0 mm 4 mps 615 mmHg 18%
    15:00 +15°C° 0 mm 4 mps 615 mmHg 17%
    16:00 +17°C° 0 mm 4 mps 615 mmHg 17%
    17:00 +15°C° 0 mm 4 mps 615 mmHg 19%
    18:00 +14°C° 0 mm 3 mps 615 mmHg 21%
    19:00 +13°C° 0 mm 3 mps 615 mmHg 23%
    20:00 +14°C° 0 mm 2 mps 615 mmHg 24%
    21:00 +13°C° 0 mm 2 mps 615 mmHg 26%
    22:00 +12°C° 0 mm 1 mps 615 mmHg 27%
    23:00 +12°C° 0 mm 1 mps 615 mmHg 28%

    Tomorrow, 21 April, Saturday

    Time Temperature Precipitation Wind Pressure Humidity
    00:00 +11°C° 0 mm 1 mps 615 mmHg 29%
    01:00 +11°C° 0 mm 1 mps 614 mmHg 30%
    02:00 +10°C° 0 mm 1 mps 614 mmHg 30%
    03:00 +10°C° 0 mm 1 mps 614 mmHg 30%
    04:00 +9°C° 0 mm 1 mps 614 mmHg 30%
    05:00 +11°C° 0 mm 1 mps 615 mmHg 27%
    06:00 +12°C° 0 mm 1 mps 616 mmHg 24%
    07:00 +13°C° 0 mm 1 mps 616 mmHg 21%
    08:00 +14°C° 0 mm 1 mps 617 mmHg 19%
    09:00 +15°C° 0 mm 1 mps 618 mmHg 17%
    10:00 +16°C° 0 mm 1 mps 618 mmHg 15%
    11:00 +18°C° 0 mm 1 mps 618 mmHg 14%
    12:00 +18°C° 0 mm 2 mps 618 mmHg 13%
    13:00 +19°C° 0 mm 2 mps 618 mmHg 12%
    14:00 +20°C° 0 mm 2 mps 618 mmHg 12%
    15:00 +20°C° 0 mm 3 mps 618 mmHg 12%
    16:00 +20°C° 0 mm 3 mps 618 mmHg 12%
    17:00 +19°C° 0 mm 2 mps 618 mmHg 14%
    18:00 +18°C° 0 mm 2 mps 618 mmHg 17%
    19:00 +18°C° 0 mm 1 mps 618 mmHg 19%
    20:00 +18°C° 0 mm 1 mps 618 mmHg 22%
    21:00 +16°C° 0 mm 1 mps 618 mmHg 24%
    22:00 +14°C° 0 mm 0 mps 618 mmHg 26%
    23:00 +14°C° 0 mm 0 mps 618 mmHg 26%

    Day after tomorrow, 22 April, Sunday

    Time Temperature Precipitation Wind Pressure Humidity
    00:00 +14°C° 0 mm 1 mps 618 mmHg 25%
    01:00 +14°C° 0 mm 1 mps 618 mmHg 24%
    02:00 +13°C° 0 mm 1 mps 617 mmHg 24%
    03:00 +13°C° 0 mm 1 mps 617 mmHg 23%
    04:00 +13°C° 0 mm 2 mps 617 mmHg 23%
    05:00 +14°C° 0 mm 2 mps 618 mmHg 21%
    06:00 +15°C° 0 mm 1 mps 619 mmHg 20%
    07:00 +16°C° 0 mm 1 mps 619 mmHg 18%
    08:00 +18°C° 0 mm 1 mps 620 mmHg 17%
    09:00 +20°C° 0 mm 1 mps 620 mmHg 15%
    10:00 +21°C° 0 mm 1 mps 621 mmHg 14%
    11:00 +22°C° 0 mm 1 mps 621 mmHg 13%
    12:00 +23°C° 0 mm 1 mps 621 mmHg 13%
    13:00 +24°C° 0 mm 2 mps 621 mmHg 12%
    14:00 +24°C° 0 mm 2 mps 621 mmHg 12%
    15:00 +25°C° 0 mm 3 mps 620 mmHg 11%
    16:00 +25°C° 0 mm 3 mps 620 mmHg 11%
    17:00 +24°C° 0 mm 3 mps 620 mmHg 14%
    18:00 +23°C° 0 mm 2 mps 620 mmHg 17%
    19:00 +21°C° 0 mm 1 mps 620 mmHg 20%
    20:00 +21°C° 0 mm 1 mps 620 mmHg 21%
    21:00 +20°C° 0 mm 1 mps 620 mmHg 23%
    22:00 +19°C° 0 mm 1 mps 620 mmHg 24%
    23:00 +19°C° 0 mm 1 mps 620 mmHg 23%

    23 April, Monday

    Time Temperature Precipitation Wind Pressure Humidity
    00:00 +18°C° 0 mm 2 mps 620 mmHg 22%
    01:00 +17°C° 0 mm 2 mps 619 mmHg 21%
    02:00 +17°C° 0 mm 2 mps 619 mmHg 22%
    03:00 +16°C° 0 mm 2 mps 619 mmHg 24%
    04:00 +16°C° 0 mm 2 mps 618 mmHg 25%
    05:00 +17°C° 0 mm 2 mps 619 mmHg 24%
    06:00 +18°C° 0 mm 2 mps 620 mmHg 23%
    07:00 +19°C° 0 mm 2 mps 621 mmHg 21%
    08:00 +20°C° 0 mm 2 mps 621 mmHg 19%
    09:00 +23°C° 0 mm 1 mps 622 mmHg 17%
    10:00 +24°C° 0 mm 1 mps 622 mmHg 14%
    11:00 +25°C° 0 mm 2 mps 622 mmHg 13%
    12:00 +26°C° 0 mm 2 mps 622 mmHg 13%
    13:00 +27°C° 0 mm 2 mps 621 mmHg 12%
    14:00 +27°C° 0 mm 3 mps 621 mmHg 12%
    15:00 +27°C° 0 mm 3 mps 621 mmHg 12%
    16:00 +27°C° 0 mm 3 mps 620 mmHg 12%
    17:00 +26°C° 0 mm 2 mps 620 mmHg 15%
    18:00 +25°C° 0 mm 2 mps 620 mmHg 18%
    19:00 +23°C° 0 mm 1 mps 620 mmHg 21%
    20:00 +23°C° 0 mm 1 mps 620 mmHg 22%
    21:00 +22°C° 0 mm 1 mps 620 mmHg 22%
    22:00 +21°C° 0 mm 1 mps 620 mmHg 23%
    23:00 +21°C° 0 mm 1 mps 620 mmHg 22%

    24 April, Tuesday

    Time Temperature Precipitation Wind Pressure Humidity
    00:00 +19°C° 0 mm 2 mps 619 mmHg 22%
    01:00 +19°C° 0 mm 2 mps 619 mmHg 22%
    02:00 +18°C° 0 mm 2 mps 619 mmHg 23%
    03:00 +18°C° 0 mm 2 mps 618 mmHg 23%
    04:00 +17°C° 0 mm 2 mps 618 mmHg 24%
    05:00 +18°C° 0 mm 2 mps 619 mmHg 23%
    06:00 +20°C° 0 mm 2 mps 620 mmHg 22%
    07:00 +21°C° 0 mm 2 mps 620 mmHg 20%
    08:00 +23°C° 0 mm 2 mps 621 mmHg 18%
    09:00 +25°C° 0 mm 1 mps 621 mmHg 15%
    10:00 +26°C° 0 mm 1 mps 622 mmHg 13%
    11:00 +27°C° 0 mm 2 mps 621 mmHg 12%
    12:00 +28°C° 0 mm 2 mps 621 mmHg 11%
    13:00 +29°C° 0 mm 3 mps 621 mmHg 11%
    14:00 +29°C° 0 mm 3 mps 621 mmHg 11%
    15:00 +29°C° 0 mm 4 mps 620 mmHg 10%
    16:00 +29°C° 0 mm 4 mps 620 mmHg 10%
    17:00 +28°C° 0 mm 3 mps 620 mmHg 13%
    18:00 +27°C° 0 mm 2 mps 619 mmHg 16%
    19:00 +25°C° 0 mm 1 mps 619 mmHg 18%
    20:00 +24°C° 0 mm 1 mps 619 mmHg 19%
    21:00 +23°C° 0 mm 1 mps 618 mmHg 20%
    22:00 +23°C° 0 mm 1 mps 618 mmHg 21%
    23:00 +22°C° 0 mm 1 mps 618 mmHg 21%

    25 April, Wednesday

    Time Temperature Precipitation Wind Pressure Humidity
    00:00 +22°C° 0 mm 1 mps 617 mmHg 21%
    01:00 +21°C° 0 mm 1 mps 617 mmHg 21%
    02:00 +21°C° 0 mm 1 mps 617 mmHg 21%
    03:00 +19°C° 0 mm 2 mps 617 mmHg 22%
    04:00 +19°C° 0 mm 2 mps 616 mmHg 22%
    05:00 +20°C° 0 mm 2 mps 617 mmHg 21%
    06:00 +21°C° 0 mm 2 mps 618 mmHg 20%
    07:00 +23°C° 0 mm 2 mps 619 mmHg 18%
    08:00 +24°C° 0 mm 2 mps 620 mmHg 17%
    09:00 +26°C° 0 mm 2 mps 620 mmHg 15%
    10:00 +27°C° 0 mm 2 mps 621 mmHg 13%
    11:00 +28°C° 0 mm 3 mps 620 mmHg 12%
    12:00 +29°C° 0 mm 4 mps 620 mmHg 11%
    13:00 +30°C° 0 mm 5 mps 620 mmHg 11%
    14:00 +30°C° 0 mm 6 mps 620 mmHg 10%
    15:00 +30°C° 0 mm 7 mps 619 mmHg 9%
    16:00 +31°C° 0 mm 8 mps 619 mmHg 9%
    17:00 +28°C° 0 mm 7 mps 619 mmHg 11%
    18:00 +27°C° 0 mm 6 mps 618 mmHg 12%
    19:00 +25°C° 0 mm 5 mps 618 mmHg 14%
    20:00 +23°C° 0 mm 4 mps 618 mmHg 16%
    21:00 +22°C° 0 mm 3 mps 618 mmHg 18%
    22:00 +21°C° 0 mm 2 mps 618 mmHg 21%
    23:00 +20°C° 0 mm 2 mps 617 mmHg 22%
    Show more